Location: Arroyo de Valdeoliva
(40.1604°N, 4.9878°W)
Time: 19:43:16
(UTC+00:00)

SL-16 R/B - Pass Details

Date: 11 December 2025
Orbit: 841 x 845 km, 71.0° (Epoch: 12 January)

Event Time Altitude Azimuth Distance (km) Brightness Sun altitude
Rises 19:32:55 0° 196° (SSW) 3,381 5.6 -29.4°
Reaches altitude 10° 19:35:21 10° 194° (SSW) 2,451 4.8 -29.9°
Enters shadow 19:38:21 33° 188° (S) 1,382 3.3 -30.5°
